Location: Bailleul
(50.3375°N, 2.8513°E)
Time: 10:22:55
(UTC+00:00)

FALCON 9 DEB - Pass Details

Date: 16 June 2021
Orbit: 422 x 432 km, 53.0° (Epoch: 27 July)

Event Time Altitude Azimuth Distance (km) Brightness Sun altitude
Rises 22:51:52 0° 255° (WSW) 2,394 6.9 -15.2°
Reaches altitude 10° 22:53:59 10° 257° (WSW) 1,526 5.9 -15.3°
Maximum altitude 22:57:24 74° 343° (NNW) 450 3.3 -15.4°
Drops below altitude 10° 23:00:49 10° 69° (ENE) 1,523 6.0 -15.5°
Sets 23:02:56 0° 72° (ENE) 2,389 7.0 -15.6°
